Weather History for Edinburgh Airport, United Kingdom

Change the Weather History Date:

Saturday, August 3, 2013

  Actual Average Record
Temperature  
Mean Temperature 62 °F -  
Max Temperature 68 °F 65 °F 73 °F (2006)
Min Temperature 55 °F 50 °F 44 °F (2006)
Degree Days  
Heating Degree Days 4    
Growing Degree Days 12 (Base 50)    
Moisture  
Dew Point 51 °F    
Average Humidity 71    
Maximum Humidity 94    
Minimum Humidity 49    
Precipitation  
Precipitation 0.00 in 0.09 in - ()
Sea Level Pressure  
Sea Level Pressure 29.70 in    
Wind  
Wind Speed 14 mph ()    
Max Wind Speed 31 mph    
Max Gust Speed 41 mph    
Visibility 6.2 miles    
Events Rain    
Averages and records for this station are not official NWS values.
T = Trace of Precipitation, MM = Missing Value Source: Averaged Metar Reports

Daily Weather History Graph

Daily Weather History Graph

Search for Another Location

Airport:

Trip Planner

Search our weather history database for the weather conditions in past years. The results will help you decide how hot, cold, wet, or windy it might be!

Date:

Astronomy

Aug. 03, 2013 Rise Set
Actual Time 5:21 AM BST 9:16 PM BST
Civil Twilight 4:33 AM BST 10:03 PM BST
Nautical Twilight 3:24 AM BST 11:11 PM BST
Astronomical Twilight 1:52 AM BST 12:47 AM BST
Moon 2:10 AM BST (8/3) 6:54 PM BST (8/3)
Length of Visible Light 17h 29m
Length of Day
15h 54m
Waning Crescent, 11% of the Moon is Illuminated
Aug 3
Waning Crescent
Aug 6
New
Aug 14
First Quarter
Aug 21
Full
Aug 28
Last Quarter

Hourly Weather History & Observations

Time (BST) Temp. Dew Point Humidity Pressure Visibility Wind Dir Wind Speed Gust Speed Precip Events Conditions
12:20 AM 60.8 °F 53.6 °F 77% 29.59 in 6.2 mi South 12.7 mph - N/A   Unknown
12:50 AM 60.8 °F 53.6 °F 77% 29.59 in 6.2 mi South 12.7 mph - N/A   Unknown
1:20 AM 60.8 °F 53.6 °F 77% 29.59 in - South 13.8 mph - N/A   Clear
1:50 AM 60.8 °F 53.6 °F 77% 29.59 in - SSW 13.8 mph - N/A   Clear
2:20 AM 59.0 °F 53.6 °F 82% 29.56 in 6.2 mi SW 9.2 mph - N/A   Unknown
2:50 AM 59.0 °F 53.6 °F 82% 29.56 in - SSW 8.1 mph - N/A   Clear
3:20 AM 59.0 °F 53.6 °F 82% 29.56 in - South 11.5 mph - N/A   Clear
3:50 AM 57.2 °F 51.8 °F 82% 29.56 in 6.2 mi SW 6.9 mph - N/A   Unknown
4:20 AM 57.2 °F 51.8 °F 82% 29.56 in - SSW 6.9 mph - N/A   Clear
4:50 AM 55.4 °F 51.8 °F 88% 29.59 in - SW 8.1 mph - N/A   Clear
5:20 AM 57.2 °F 51.8 °F 82% 29.59 in - SW 12.7 mph - N/A   Clear
5:50 AM 57.2 °F 51.8 °F 82% 29.59 in 6.2 mi SW 13.8 mph - N/A Rain Light Rain
6:20 AM 59.0 °F 51.8 °F 77% 29.59 in 6.2 mi SW 13.8 mph - N/A   Mostly Cloudy
6:50 AM 59.0 °F 51.8 °F 77% 29.59 in 6.2 mi SW 17.3 mph - N/A   Mostly Cloudy
7:20 AM 59.0 °F 51.8 °F 77% 29.62 in 6.2 mi SW 15.0 mph - N/A   Mostly Cloudy
7:50 AM 59.0 °F 51.8 °F 77% 29.62 in 6.2 mi SW 13.8 mph - N/A   Mostly Cloudy
8:20 AM 59.0 °F 51.8 °F 77% 29.62 in 6.2 mi SW 18.4 mph - N/A   Mostly Cloudy
8:50 AM 59.0 °F 51.8 °F 77% 29.62 in 6.2 mi WSW 20.7 mph - N/A   Mostly Cloudy
9:20 AM 60.8 °F 50.0 °F 68% 29.65 in 6.2 mi WSW 20.7 mph - N/A   Mostly Cloudy
9:50 AM 60.8 °F 50.0 °F 68% 29.65 in 6.2 mi WSW 18.4 mph - N/A   Mostly Cloudy
10:20 AM 62.6 °F 51.8 °F 68% 29.65 in 6.2 mi WSW 18.4 mph 29.9 mph N/A   Mostly Cloudy
10:50 AM 62.6 °F 50.0 °F 63% 29.68 in 6.2 mi WSW 23.0 mph - N/A   Mostly Cloudy
11:20 AM 60.8 °F 50.0 °F 68% 29.68 in 6.2 mi WSW 20.7 mph - N/A   Mostly Cloudy
11:50 AM 62.6 °F 50.0 °F 63% 29.68 in 6.2 mi WSW 20.7 mph - N/A   Mostly Cloudy
12:20 PM 62.6 °F 50.0 °F 63% 29.71 in 6.2 mi WSW 23.0 mph - N/A   Mostly Cloudy
12:50 PM 62.6 °F 50.0 °F 63% 29.71 in 6.2 mi WSW 20.7 mph - N/A   Mostly Cloudy
1:20 PM 64.4 °F 48.2 °F 56% 29.71 in 6.2 mi WSW 31.1 mph - N/A   Mostly Cloudy
1:50 PM 64.4 °F 48.2 °F 56% 29.74 in 6.2 mi WSW 25.3 mph - N/A   Scattered Clouds
2:20 PM 66.2 °F 48.2 °F 52% 29.74 in 6.2 mi WSW 28.8 mph 41.4 mph N/A   Scattered Clouds
2:50 PM 64.4 °F 48.2 °F 56% 29.77 in 6.2 mi WSW 24.2 mph - N/A   Partly Cloudy
3:20 PM 60.8 °F 50.0 °F 68% 29.77 in 6.2 mi WSW 20.7 mph - N/A Rain Light Rain Showers
3:50 PM 66.2 °F 50.0 °F 56% 29.77 in 6.2 mi WSW 23.0 mph - N/A   Scattered Clouds
4:20 PM 68.0 °F 48.2 °F 49% 29.77 in 6.2 mi WSW 24.2 mph - N/A   Scattered Clouds
4:50 PM 66.2 °F 48.2 °F 52% 29.77 in 6.2 mi WSW 20.7 mph - N/A   Scattered Clouds
5:20 PM 68.0 °F 48.2 °F 49% 29.77 in 6.2 mi WSW 21.9 mph 33.4 mph N/A   Scattered Clouds
5:50 PM 68.0 °F 50.0 °F 52% 29.77 in 6.2 mi SW 17.3 mph - N/A   Scattered Clouds
6:20 PM 66.2 °F 48.2 °F 52% 29.80 in 6.2 mi SW 18.4 mph - N/A   Scattered Clouds
6:50 PM 66.2 °F 50.0 °F 56% 29.80 in 6.2 mi SSW 17.3 mph - N/A   Scattered Clouds
7:20 PM 66.2 °F 51.8 °F 60% 29.80 in 6.2 mi SW 17.3 mph - N/A   Partly Cloudy
7:50 PM 64.4 °F 51.8 °F 64% 29.80 in 6.2 mi SW 16.1 mph 29.9 mph N/A Rain Rain Showers
8:20 PM 57.2 °F 55.4 °F 94% 29.83 in 6.2 mi WSW 8.1 mph - N/A   Mostly Cloudy
8:50 PM 59.0 °F 53.6 °F 82% 29.83 in 6.2 mi SW 12.7 mph - N/A   Scattered Clouds
9:20 PM 59.0 °F 53.6 °F 82% 29.83 in 6.2 mi SSW 10.4 mph - N/A   Scattered Clouds
9:50 PM 59.0 °F 53.6 °F 82% 29.83 in 6.2 mi SW 11.5 mph - N/A   Partly Cloudy
10:20 PM 59.0 °F 51.8 °F 77% 29.83 in 6.2 mi SSW 10.4 mph - N/A   Unknown
10:50 PM 57.2 °F 51.8 °F 82% 29.83 in 6.2 mi SW 9.2 mph - N/A   Unknown
11:20 PM 57.2 °F 51.8 °F 82% 29.86 in - SW 6.9 mph - N/A   Clear
11:50 PM 57.2 °F 51.8 °F 82% 29.86 in 6.2 mi SSW 8.1 mph - N/A   Unknown